OBJECT W, 56866

Orbit data source: Space-Track

You're viewing an Uncataloged Satellite

Recently launched and/or uncataloged satellites may have evolving metadata. Metadata may include but not limited to: Owner, Maufacturer, Bus, Motor, and Mission.

OBJECT W, 56866 is a satellite in SSO that was launched on Wed, 07 Jun 2023 UTC via a LIJIAN-1 launch vehicle from the Jiuquan Satellite Launch Center, China (JSC). Unknown objects in Earth's orbit typically refer to objects detected orbiting the Earth but have not yet been identified or cataloged. These objects could be anything from previously untracked satellites, spent rocket stages, debris from satellite collisions, or even natural meteoroids temporarily captured by Earth's gravity.

Loading next visibility...
Identifier
56866, 2023-081W
Orbit
SSO
Country
Flag of TBDTBD
Related business
None
Manufacturer
Unknown
Mission
Operational Commercial Technology
Bus & Motor
Unknown
Mass
Unknown
Launch date (UTC)
2023-06-07 (3 years ago)
Launch vehicle
LIJIAN-1
Launch site
Jiuquan Satellite Launch Center, China (JSC)
Object type
Unknown
Shape & HBR
Box + 2 Pan, 0.5 m
Radar Cross Section
0.126 m², Medium (>0.1 m² and < 1m²)

Expand to show TLE details & history
Last TLE update: 10 hours ago

TLE from 10 hours ago
0 OBJECT W
1 56866U 23081W   26133.22791994  .00004260  00000-0  17580-3 0  9999
2 56866  97.2918 197.6802 0012293 131.1401 229.0899 15.24504794162706
Epoch: 2026-05-13T05:28Z
TLE epoch observation values (Epoch: 2026-05-13T05:28:12.282Z)
Latitude
-0.00013°
Longitude
-115.36192°
Altitude
500.911 km
Speed
7.611 km/s
True Right ascension
13h 10m 43s
True Declination
0° 00' 00"
Sunlit
Object was in full shadow at epoch
Visualization orbit readout
Latitude
Unknown
Longitude
Unknown
Altitude
Unknown
Speed
Unknown
Apparent Right ascension
Unknown
Apparent Declination
Unknown
Sunlit
N/A
Visualization observer readout
Local Sidereal Time
23:28:16
Azimuth
Unknown
Elevation
Unknown
Doppler factor
Unknown
Orbital elements
Apogee altitude
497.67 km
Perigee altitude
480.786 km
Semi-major axis
6,867.365 km
Eccentricity
0.00123
Inclination
97.2918°
RAAN
197.6802°
Arg. of periapsis
131.1401°
True anomaly
228.98355°
Mean anomaly
229.0899°
Eccentric anomaly
229.03671°
Mean motion
3.8138 °/min
Orbital period
94.39 mins
BSTAR
0.0001758
Loading maneuver chart data...
Computing Atmospheric mass density...
Loading historical data...
Loading historical data...
Loading historical data...
Loading historical data...
Loading historical data...
Loading historical data...
Loading historical data...

Documentation

Showing up to 5 results
|